Tracking 26955 objects as of 3-Feb-2023
HD Live streaming from Space Station
objects crossing your sky now

DELTA 1 DEB

Track DELTA 1 DEB now!
10-day predictions


NORAD ID: 42632
Int'l Code: 1975-052LR
Perigee: 1,083.0 km
Apogee: 1,698.9 km
Inclination: 99.6 °
Period: 113.4 minutes
Semi major axis: 7761 km
RCS: Unknown
Launch date: June 12, 1975
Source: United States (US)
Launch site: AIR FORCE WESTERN TEST RANGE (AFWTR)

Note: This is SATELLITE DEBRIS
Your satellite tracking list
Your tracking list is empty




NASA's NSSDC Master Catalog

Two Line Element Set (TLE):
1 42632U 75052LR  23032.11133992 -.00000076  00000-0 -15711-3 0  9998
2 42632  99.5892 283.3485 0396710 183.4726 176.3589 12.69537751383943
Source of the keplerian elements: AFSPC